Погода в Канаше

Россия / Чувашская Республика     55°50′31″N   46°13′34″E
темп.,
°C
ветер,
м/с
пор.,
м/с
влажн.,
%
обл.,
%
осадки,
мм/ч
давл.,
гПа
погр.,
м
29 мая, вс
вс2900:00+8зюз6149175 0.1 1006504
03:00+7юз613955 0.1 1008413
06:00+9юз512900 0.0 1010457
09:00+13юз711691 0.1 10111185
12:00+16зюз811578 0.4 10122008
15:00+15зюз71069100 1.0 10131539
18:00+13юз5107896 0.8 1013387
21:00+9ююз410923 1.2 1014170
30 мая, пн
пн3000:00+7юз39945 0.0 1015165
03:00+6зюз38930 0.0 1017132
06:00+9зюз48880 0.0 1018261
09:00+14з57690 0.0 1019874
12:00+16з67580 0.0 10201739
15:00+17з57555 0.0 10201903
18:00+16з35702 0.0 1021266
21:00+11зюз227828 0.0 102212
31 мая, вт
вт3100:00+10юз118189 0.0 102310
03:00+8ююз118476 0.0 102310
06:00+12ю127791 0.0 102491
09:00+17ююз226380 0.0 1024518
12:00+19юз125284 0.0 10241499
15:00+20з1249100 0.0 10241736
18:00+19св0167100 0.0 102332
21:00+14в347659 0.0 102355
1 июня, ср
ср100:00+12юв367554 0.0 102495
03:00+11юв3483100 0.0 102462
06:00+13юв377980 0.0 1024204
09:00+19ююв4664100 0.0 1023634
12:00+22ююв5656100 0.0 10221441
15:00+19юз3676100 0.0 1022265
18:00+17вюв348380 0.4 102163
21:00+17юв238399 0.4 102146
2 июня, чт
чт200:00+16ю238899 0.1 102144
03:00+15ююз239194 0.4 102145
06:00+17ююз3792100 0.1 1021294
09:00+20ююз4682100 0.1 1020697
12:00+22ююз4570100 0.0 1020970
15:00+24ююз466681 0.0 10191366
18:00+23ююз367633 0.0 1018272
21:00+18ю3390100 0.0 101841